Weather in Praia do Forte

Brazil     12°31′39″S   38°18′19″W
temp.,
°C
wind,
m/s
gust,
m/s
humid.,
%
clouds,
%
prec.,
mm/h
press.,
hPa
HPBL,
m
22 january, fri
fri2200:00+21e119466 0.0 101524
03:00+21ene019683 0.1 101424
06:00+22sw119293 0.1 101527
09:00+28se245796 0.1 10171246
12:00+31se4548100 0.1 10161724
15:00+29se4555100 0.1 10141389
18:00+25se267499 0.0 1015442
21:00+21se129088 0.0 101646
23 january, sat
sat2300:00+21sse129595 0.0 101533
03:00+21se119896 0.1 101424
06:00+22ssw0194100 0.4 101527
09:00+24ese2790100 2.2 1016513
12:00+27e2570100 0.7 1015976
15:00+25ese3688100 3.9 1013513
18:00+23se1291100 0.4 101449
21:00+22ese2697100 0.6 1015203
24 january, sun
sun2400:00+22ese129594 0.1 101461
03:00+21e129785 0.2 101259
06:00+22nne019588 0.1 101324
09:00+27e357794 0.9 1015898
12:00+31ese4548100 0.3 10131494
15:00+30ese454896 0.3 10111372
18:00+25ese277551 0.0 1012510
21:00+22ese129368 0.0 101458
25 january, mon
mon2500:00+21e129696 0.0 101325
03:00+22ese119698 0.3 101125
06:00+22e1394100 0.4 1012135
09:00+28ese246099 0.5 10141161
12:00+31ese454594 0.0 10131681
15:00+31ese464493 0.0 10111499
18:00+25se267651 0.0 1012392
21:00+22ese129648 0.0 101351
26 january, tue
tue2600:00+21e129747 0.1 101324
03:00+21nnw009733 0.1 101123
06:00+22e119442 0.9 101355
09:00+28e246146 1.0 10141172
12:00+32ese454594 0.3 10131799
15:00+31ese454997 0.3 10111418
18:00+25ese267481 0.0 1012473
21:00+22e129176 0.0 101331